Prescott, AZ

5:18 AM MST on October 15, 2019 (GMT -0700)
Love

Weather History for KPRC - August, 2019

Change the Weather History Date:

Wednesday, August 14, 2019

  Actual Average Record
Temperature  
Mean Temperature 79 °F 74 °F  
Max Temperature 97 °F 87 °F 102 °F (1996)
Min Temperature 60 °F 61 °F 51 °F (1987)
Degree Days  
Heating Degree Days 0    
Month to date heating degree days 0  
Since 1 July heating degree days 0  
Cooling Degree Days 14    
Month to date cooling degree days 174  
Year to date cooling degree days 742  
Growing Degree Days 29 (Base 50)    
Moisture  
Dew Point 31 °F    
Average Humidity 19    
Maximum Humidity 36    
Minimum Humidity 9    
Precipitation  
Precipitation 0.00 in 0.09 in 2.00 in (2003)
Month to date precipitation 0.30 1.26  
Year to date precipitation 8.11 8.30  
Sea Level Pressure  
Sea Level Pressure 29.93 in    
Wind  
Wind Speed 7 mph (SSW)    
Max Wind Speed 18 mph    
Max Gust Speed 25 mph    
Visibility 10 miles    
Events      
T = Trace of Precipitation, MM = Missing Value Source: NWS Daily Summary

Daily Weather History Graph

Daily Weather History Graph

Search for Another Location

Airport or City:

Astronomy

Aug. 14, 2019 Rise Set
Actual Time 5:49 AM MST 7:18 PM MST
Civil Twilight 5:22 AM MST 7:45 PM MST
Nautical Twilight 4:50 AM MST 8:17 PM MST
Astronomical Twilight 4:16 AM MST 8:50 PM MST
Moon 7:12 PM MST (8/14) 4:54 AM MST (8/14)
Length of Visible Light 14h 22m
Length of Day
13h 29m
Full, 100% of the Moon is Illuminated
Aug 14
Full
Aug 15
Full
Aug 23
Last Quarter
Aug 30
New
Sep 5
First Quarter

Hourly Weather History & Observations

Time (MST) Temp. Dew Point Humidity Pressure Visibility Wind Dir Wind Speed Gust Speed Precip Events Conditions
12:53 AM 68.0 °F 34.0 °F 28% 29.95 in 10.0 mi South 3.5 mph - N/A   Clear
1:53 AM 66.9 °F 33.1 °F 28% 29.95 in 10.0 mi South 6.9 mph - N/A   Clear
2:53 AM 64.9 °F 33.1 °F 31% 29.95 in 10.0 mi South 9.2 mph - N/A   Clear
3:53 AM 64.9 °F 32.0 °F 29% 29.96 in 10.0 mi SSW 10.4 mph - N/A   Clear
4:53 AM 61.0 °F 33.1 °F 35% 29.96 in 10.0 mi South 4.6 mph - N/A   Clear
5:53 AM 61.0 °F 34.0 °F 36% 29.98 in 10.0 mi South 9.2 mph - N/A   Clear
6:53 AM 66.0 °F 34.0 °F 30% 29.98 in 10.0 mi SSW 5.8 mph - N/A   Clear
7:53 AM 75.9 °F 37.9 °F 25% 29.98 in 10.0 mi Calm Calm - N/A   Clear
8:53 AM 84.0 °F 28.0 °F 13% 29.97 in 10.0 mi WNW 5.8 mph - N/A   Clear
9:53 AM 89.1 °F 28.0 °F 11% 29.97 in 10.0 mi NNW 5.8 mph - N/A   Clear
10:53 AM 91.0 °F 28.0 °F 10% 29.96 in 10.0 mi NNE 4.6 mph - N/A   Clear
11:53 AM 93.9 °F 28.9 °F 10% 29.94 in 10.0 mi NNE 6.9 mph - N/A   Clear
12:53 PM 93.0 °F 28.0 °F 10% 29.94 in 10.0 mi Variable 5.8 mph - N/A   Partly Cloudy
1:53 PM 95.0 °F 28.9 °F 10% 29.91 in 10.0 mi North - - N/A   Clear
2:53 PM 97.0 °F 28.9 °F 9% 29.89 in 10.0 mi WSW 8.1 mph 25.3 mph N/A   Clear
3:53 PM 96.1 °F 28.9 °F 9% 29.88 in 10.0 mi South 8.1 mph - N/A   Clear
4:53 PM 95.0 °F 27.0 °F 9% 29.88 in 10.0 mi WSW 15.0 mph - N/A   Clear
5:53 PM 93.0 °F 27.0 °F 9% 29.88 in 10.0 mi WSW 10.4 mph - N/A   Clear
6:53 PM 90.0 °F 28.0 °F 11% 29.88 in 10.0 mi WSW 11.5 mph - N/A   Clear
7:53 PM 82.9 °F 30.0 °F 15% 29.89 in 10.0 mi SW 6.9 mph - N/A   Clear
8:53 PM 79.0 °F 30.9 °F 17% 29.91 in 10.0 mi SSW 6.9 mph - N/A   Clear
9:53 PM 75.0 °F 35.1 °F 23% 29.92 in 10.0 mi South 6.9 mph - N/A   Clear
10:53 PM 72.0 °F 37.9 °F 29% 29.93 in 10.0 mi South 4.6 mph - N/A   Clear
11:53 PM 72.0 °F 33.1 °F 24% 29.92 in 10.0 mi South 9.2 mph - N/A   Clear